Wind_Speed
3 3 3 3 4 6 6 6 7 6 6 6 5 4 4 5 5 5 5 5 5 4 4 4 5 5 6 8 9 10 10 10 10 9 9 8 7 6 6 5 5 4 5 5 6 7 6 6 4
6 5 4 4 3 5 7 7 8 9 9 8 7 6 5 5 5 5 5 5 5 5 5 5 5 6 6 7 9 10 10 11 11 10 10 10 9 9 8 8 7 7 6 6 5 5 5 5 4
9 8 7 6 6 7 9 9 10 10 10 9 9 8 6 5 5 5 5 6 6 6 6 6 6 6 7 7 8 10 11 11 12 12 12 12 12 11 11 11 10 10 10 9 8 7 6 5 4
11 11 10 9 10 11 12 12 12 11 10 10 10 9 8 7 6 6 5 6 6 6 6 6 6 7 7 8 9 10 11 12 13 14 14 15 15 15 14 14 14 13 13 12 11 10 8 7 6
13 13 12 12 15 15 15 14 13 12 11 11 10 9 8 7 7 7 7 7 7 7 7 7 8 8 9 10 11 12 13 14 15 16 17 18 18 18 18 17 17 17 17 16 15 14 12 11 10
15 14 14 14 18 18 17 15 14 13 12 11 10 9 8 8 8 7 7 8 8 9 10 10 11 12 13 14 15 16 16 17 18 19 20 21 21 22 22 21 21 20 20 19 18 18 17 15 15
16 16 18 19 20 21 21 18 16 14 13 12 11 10 10 9 8 8 8 9 10 11 13 14 15 16 17 19 19 20 21 22 22 23 24 24 24 25 25 25 25 24 23 22 21 21 20 20 19
18 18 20 22 22 23 23 21 19 17 16 14 13 12 12 11 10 10 11 12 13 15 16 18 19 20 22 23 24 25 26 27 27 27 27 27 27 28 28 28 28 27 26 25 24 23 23 23 23
18 19 20 24 24 25 25 24 22 20 18 17 16 15 15 14 14 14 15 16 17 18 19 21 22 24 25 26 28 29 29 28 29 30 31 30 31 31 31 31 31 31 30 28 26 25 25 25 25
20 19 22 24 25 27 28 27 25 23 22 21 19 19 18 17 18 18 19 20 21 22 24 24 26 27 28 29 30 31 31 30 30 31 31 32 33 34 35 34 34 34 32 30 29 27 26 26 26
21 21 23 24 26 27 29 29 28 27 26 25 23 22 22 21 21 22 23 24 25 26 27 27 28 29 30 31 31 32 33 33 32 33 33 33 34 36 37 37 37 36 34 32 30 29 27 27 26
21 22 23 24 26 27 28 30 30 30 29 29 28 28 27 26 25 26 27 27 28 28 29 29 28 29 30 31 32 33 34 34 33 33 34 35 36 37 38 40 40 38 36 33 32 30 28 27 27
20 21 22 23 24 25 26 28 30 30 31 32 32 32 31 30 29 29 29 29 30 30 31 31 31 31 31 33 32 32 32 33 34 36 36 37 38 38 40 41 41 39 37 35 33 32 31 29 28
19 19 21 21 22 23 24 25 27 28 29 31 31 32 32 31 30 30 30 31 31 31 32 33 33 34 34 35 35 34 34 34 34 35 37 38 41 41 41 41 43 41 39 37 35 34 33 31 29
17 17 19 20 21 22 22 24 25 25 26 27 28 29 30 30 29 30 31 31 32 32 33 34 35 35 36 37 36 36 35 34 34 35 36 37 40 41 41 41 42 41 39 39 37 36 34 33 31
15 14 17 19 20 21 21 23 23 23 23 23 24 25 26 27 27 27 28 30 31 32 34 35 36 38 38 38 37 38 36 35 34 34 35 37 39 39 39 39 40 41 41 40 38 37 36 34 32
10 9 13 18 18 19 20 22 22 21 21 20 20 20 21 23 24 26 27 29 32 34 36 37 39 39 39 39 39 38 36 35 34 34 35 36 36 36 35 37 38 40 41 41 39 38 36 35 33
9 9 12 16 17 18 19 20 21 20 20 19 18 19 20 22 24 27 29 32 35 37 38 40 40 41 40 40 39 37 36 36 35 35 36 33 33 31 32 36 38 40 41 40 39 38 36 35 34
9 8 11 15 15 17 18 19 20 20 20 20 20 20 22 24 27 29 32 34 35 37 38 38 39 39 38 38 38 38 37 37 36 36 35 33 29 28 30 34 38 40 40 39 39 37 36 36 35
7 6 10 12 13 14 14 15 15 16 17 18 20 21 23 25 28 30 31 32 33 35 35 36 36 37 38 38 39 39 39 39 38 38 36 33 30 28 29 31 33 36 40 40 38 36 36 35 34
5 5 9 10 10 10 10 10 11 12 14 16 17 19 22 24 26 28 30 32 33 35 35 36 37 38 39 40 40 41 41 41 40 39 37 35 34 31 30 30 32 34 35 36 36 37 36 35 34
5 8 8 9 8 9 8 11 11 13 15 17 19 21 23 25 27 29 31 33 35 36 37 38 39 40 42 42 43 43 43 43 42 41 40 39 37 35 33 32 32 34 34 34 36 36 36 34 33
7 7 8 9 9 10 10 11 15 16 18 20 22 24 26 28 29 31 33 35 36 37 39 40 41 43 44 45 45 45 45 45 44 44 43 42 41 40 38 36 35 35 36 36 37 37 37 36 35
6 7 8 9 10 11 13 13 18 19 21 23 25 26 27 28 30 32 34 35 36 38 40 41 42 43 44 45 45 46 46 46 45 45 44 44 44 43 43 42 41 40 40 39 39 39 39 38 37
7 7 9 10 9 13 18 16 19 20 22 24 25 26 28 29 31 33 34 35 36 38 39 41 41 42 43 43 43 43 43 42 42 42 42 43 43 44 45 46 46 46 45 44 44 43 43 41 40
7 7 8 9 11 16 20 18 18 19 22 23 25 27 29 31 32 33 35 36 37 38 39 40 40 40 40 40 39 39 39 39 39 40 40 41 42 44 45 46 48 50 51 51 50 49 48 47 45
9 9 10 11 12 12 16 17 16 19 22 24 26 28 30 32 33 35 36 38 38 39 39 39 38 37 36 35 35 35 36 37 38 39 40 41 43 44 46 47 49 51 53 55 56 56 55 53 50
8 9 9 9 10 10 14 19 20 21 23 26 28 30 32 34 35 37 38 39 39 39 39 39 37 35 34 34 34 35 37 38 40 42 44 45 47 48 49 50 51 52 54 56 59 60 61 60 57
8 8 9 9 10 11 12 18 20 22 24 27 30 31 33 35 37 39 39 40 40 40 40 39 37 35 35 35 36 38 40 42 44 46 48 49 50 52 53 54 54 55 56 57 59 62 64 65 64
8 9 9 10 12 13 15 19 20 23 25 28 31 33 35 37 39 40 40 41 41 41 40 39 38 37 36 37 38 41 44 46 48 50 52 53 54 55 56 57 58 58 59 60 61 63 65 67 69
Wind_Direction
307 318 327 332 349 359 349 349 347 350 356 359 357 357 354 348 343 335 327 322 319 315 316 323 331 329 320 312 308 306 305 305 304 298 291 289 288 287 287 289 299 311 328 343 356 5 15 26 33
287 289 295 301 327 330 313 321 325 329 335 337 333 332 340 339 331 327 322 321 319 315 317 325 334 335 327 317 310 304 301 301 300 297 290 288 286 284 282 281 283 286 294 304 320 337 348 2 16
285 283 283 285 287 282 289 301 310 319 323 326 326 326 328 328 325 323 321 322 323 324 327 332 338 335 326 316 307 302 298 297 298 296 292 290 288 286 284 280 279 278 279 283 289 302 314 323 330
280 280 282 281 276 274 281 291 301 309 314 317 320 316 312 309 310 314 314 317 320 326 331 330 330 325 318 310 303 300 299 299 299 297 295 293 291 288 285 281 277 275 273 273 275 280 287 293 294
277 277 279 283 275 277 281 288 295 302 302 306 306 301 299 300 299 300 305 312 317 319 321 321 320 315 310 305 301 300 299 299 298 296 295 294 292 289 285 281 276 272 270 268 268 270 272 275 275
272 273 267 266 275 281 284 289 293 295 296 297 293 288 291 293 293 294 299 304 308 309 310 309 307 304 303 300 299 297 297 296 296 295 295 294 293 291 287 282 277 272 269 267 267 266 266 266 266
268 266 260 262 269 276 282 287 288 289 289 289 287 286 287 288 287 287 289 291 295 299 300 299 299 299 298 298 297 296 295 295 294 294 293 292 291 289 287 283 279 274 270 267 265 264 262 261 261
268 264 260 260 262 267 275 279 281 283 286 288 291 291 289 286 284 284 285 287 290 294 296 296 296 297 297 296 296 296 296 295 294 292 291 289 287 285 284 281 279 275 271 267 264 263 261 260 259
268 262 256 257 258 260 266 270 276 280 283 286 292 296 295 292 290 289 289 291 292 294 296 297 297 298 298 297 297 296 295 295 295 292 289 287 285 283 281 278 276 273 270 267 264 262 262 260 259
269 262 257 259 256 255 259 263 269 273 278 282 287 292 294 292 291 293 293 294 294 295 295 297 297 298 298 297 296 296 293 292 292 292 289 286 284 282 280 276 272 270 268 265 263 261 262 261 259
271 264 261 257 255 255 256 259 264 266 271 276 281 286 290 291 291 293 294 294 293 294 296 297 297 298 298 299 298 299 296 293 291 288 287 286 285 282 278 274 270 267 265 263 261 262 262 260 259
272 267 264 262 261 259 258 259 262 264 268 272 275 278 282 283 285 288 289 291 293 293 295 296 296 297 297 298 299 298 297 293 290 289 287 287 286 282 277 272 268 264 262 260 259 259 259 258 260
270 269 268 267 266 265 263 263 264 265 267 269 272 274 276 278 280 281 283 285 288 289 291 292 293 295 298 299 300 300 298 293 289 288 288 288 286 282 275 270 265 261 260 257 256 257 257 255 258
270 272 272 271 271 271 269 268 268 268 268 269 270 271 272 272 273 274 276 280 284 286 288 289 292 293 296 298 300 298 297 294 290 289 289 287 285 281 273 267 262 258 256 254 253 253 253 253 255
271 273 273 273 275 275 277 275 273 273 271 271 270 270 269 269 269 269 272 277 281 283 285 288 289 291 294 297 298 298 297 295 292 291 290 289 287 282 271 263 258 254 254 251 250 250 251 252 252
273 276 275 277 278 279 279 279 281 280 279 278 276 273 270 268 268 270 274 277 280 283 285 287 288 290 293 295 296 297 295 293 295 295 293 291 287 279 268 259 254 251 250 250 249 249 249 251 251
276 263 270 281 282 283 282 283 285 286 286 285 282 278 273 270 270 274 278 281 284 286 287 288 290 292 293 294 295 294 293 293 295 296 298 295 288 277 262 255 251 249 247 247 248 249 249 249 249
256 263 275 281 283 284 283 283 285 284 284 284 283 281 279 277 278 280 283 285 288 289 290 290 291 292 293 294 294 293 293 293 295 296 298 299 291 275 261 254 248 248 247 247 247 247 247 247 249
271 270 275 284 286 285 284 281 279 278 279 280 282 283 284 284 285 286 287 289 291 293 294 293 293 292 292 293 292 292 292 292 293 295 296 297 292 279 267 255 249 245 245 247 247 246 246 246 248
284 286 289 293 292 291 289 286 282 280 281 284 285 287 288 289 289 291 293 295 296 298 298 297 295 294 293 292 292 291 291 291 292 293 293 290 288 283 273 260 252 248 246 245 245 242 243 245 246
292 279 286 298 300 300 302 300 297 294 294 295 296 297 298 299 299 299 299 299 299 299 299 297 296 295 294 292 291 290 290 289 288 288 287 286 284 281 276 263 257 253 248 244 243 243 242 243 245
273 279 289 299 307 308 311 305 305 308 308 307 306 305 305 304 303 302 302 301 300 299 298 298 296 295 294 293 291 290 289 287 286 285 283 281 279 275 272 268 261 255 251 247 246 243 241 241 242
258 280 294 301 303 303 306 304 306 309 309 307 306 307 306 305 304 304 303 302 301 300 299 298 297 296 295 293 292 290 289 287 285 283 280 278 275 271 268 265 261 257 253 251 249 245 243 241 240
285 293 305 312 314 298 302 302 300 306 305 304 305 306 306 305 305 305 304 303 302 300 299 298 296 295 293 292 291 290 288 287 285 283 280 277 273 270 266 262 258 255 253 250 249 248 244 242 240
295 303 307 306 299 287 299 299 297 303 303 305 307 308 308 308 308 307 306 305 304 302 301 299 297 295 293 292 290 289 288 287 285 283 282 279 276 272 267 263 259 255 252 250 249 248 246 244 242
295 289 282 277 283 290 301 302 306 306 309 311 312 312 313 313 312 311 311 309 308 306 304 302 299 297 295 292 291 290 289 288 286 285 283 281 279 275 271 266 262 258 253 250 249 247 246 245 243
293 288 287 295 298 301 303 310 311 313 315 317 318 318 318 317 317 316 315 313 312 310 308 306 303 300 296 294 293 292 290 289 288 287 285 282 280 277 273 269 265 261 256 252 248 246 245 244 243
297 300 306 309 303 308 310 315 322 323 323 323 323 323 323 321 320 320 319 317 316 315 313 311 307 302 299 297 295 294 293 292 291 289 287 284 280 276 273 270 266 262 259 254 250 246 244 242 242
322 322 323 322 320 321 315 309 327 327 328 327 328 328 326 325 324 323 322 321 320 319 317 314 309 305 302 300 298 297 297 296 295 292 289 286 282 278 273 269 265 261 258 255 251 247 244 242 241
342 340 338 333 327 329 328 322 333 331 331 331 332 331 329 328 328 326 325 324 323 321 318 314 310 307 304 302 301 301 300 300 298 296 293 289 284 279 275 270 265 261 258 254 252 248 244 242 240
Height
5932 5932 5932 5933 5934 5934 5933 5933 5932 5931 5930 5929 5927 5926 5925 5925 5925 5926 5923 5921 5920 5920 5919 5919 5919 5918 5918 5918 5918 5917 5916 5916 5915 5914 5913 5912 5910 5909 5908 5907 5907 5906 5905 5904 5904 5903 5903 5902 5901
5932 5932 5932 5933 5934 5936 5934 5932 5931 5930 5929 5928 5927 5926 5925 5924 5923 5922 5921 5920 5919 5918 5917 5917 5917 5917 5917 5917 5916 5916 5915 5914 5913 5913 5912 5911 5909 5908 5907 5906 5906 5905 5904 5903 5903 5902 5902 5901 5900
5931 5931 5932 5933 5933 5933 5932 5931 5930 5929 5928 5927 5926 5925 5924 5922 5921 5920 5919 5918 5917 5916 5916 5915 5915 5915 5915 5915 5915 5914 5913 5913 5912 5911 5910 5909 5908 5907 5906 5905 5904 5904 5903 5902 5902 5901 5901 5901 5900
5930 5930 5932 5933 5932 5931 5931 5930 5929 5929 5928 5926 5925 5924 5922 5921 5919 5918 5917 5916 5916 5915 5914 5914 5913 5913 5913 5913 5913 5912 5911 5911 5910 5909 5908 5907 5906 5905 5904 5903 5902 5902 5901 5901 5900 5900 5899 5899 5899
5928 5929 5930 5931 5929 5929 5929 5929 5928 5928 5927 5925 5924 5922 5921 5920 5918 5917 5916 5915 5915 5914 5913 5912 5912 5912 5912 5911 5911 5910 5909 5908 5907 5906 5906 5905 5903 5902 5901 5900 5900 5899 5899 5898 5897 5897 5897 5897 5897
5926 5927 5929 5930 5927 5926 5926 5926 5926 5926 5925 5923 5922 5921 5920 5918 5917 5916 5915 5914 5913 5912 5912 5911 5910 5910 5910 5909 5908 5907 5906 5905 5904 5903 5902 5901 5900 5899 5898 5897 5896 5896 5895 5895 5894 5894 5894 5894 5894
5924 5925 5925 5925 5924 5924 5924 5923 5923 5923 5922 5921 5921 5920 5918 5917 5916 5915 5914 5912 5912 5911 5910 5909 5908 5908 5907 5906 5905 5904 5903 5901 5900 5899 5898 5897 5896 5895 5894 5893 5892 5892 5891 5891 5891 5890 5890 5890 5890
5921 5922 5922 5922 5922 5921 5920 5920 5920 5920 5919 5919 5919 5918 5917 5916 5914 5913 5912 5911 5910 5909 5908 5907 5906 5905 5904 5902 5901 5900 5899 5897 5896 5894 5893 5891 5890 5889 5888 5887 5887 5886 5886 5886 5886 5886 5886 5886 5886
5917 5919 5918 5917 5917 5917 5916 5916 5916 5916 5916 5916 5916 5916 5915 5914 5913 5911 5910 5909 5908 5907 5905 5904 5903 5901 5900 5898 5897 5895 5893 5892 5890 5888 5886 5885 5884 5882 5882 5881 5881 5880 5880 5880 5880 5881 5881 5880 5881
5913 5914 5913 5912 5912 5912 5912 5912 5913 5913 5912 5912 5913 5912 5912 5911 5910 5909 5908 5906 5905 5904 5902 5901 5899 5898 5896 5894 5892 5890 5888 5886 5884 5882 5880 5878 5877 5875 5874 5874 5873 5873 5873 5874 5874 5874 5874 5875 5875
5908 5909 5907 5906 5906 5906 5907 5907 5908 5909 5909 5909 5909 5909 5908 5907 5906 5905 5904 5903 5901 5899 5898 5897 5895 5894 5892 5890 5888 5885 5882 5880 5878 5875 5873 5871 5869 5868 5866 5865 5865 5865 5865 5866 5867 5868 5868 5869 5869
5904 5903 5902 5901 5901 5902 5902 5903 5904 5904 5905 5905 5905 5904 5904 5903 5902 5901 5899 5898 5896 5895 5893 5892 5890 5888 5886 5884 5882 5879 5876 5873 5870 5867 5865 5863 5861 5859 5857 5856 5856 5856 5857 5859 5860 5861 5862 5862 5862
5898 5897 5897 5897 5897 5897 5897 5898 5899 5899 5899 5900 5899 5899 5899 5898 5897 5896 5894 5893 5892 5890 5888 5886 5884 5882 5880 5878 5875 5872 5869 5866 5863 5860 5857 5854 5852 5850 5848 5847 5847 5848 5849 5851 5853 5854 5855 5856 5856
5893 5893 5892 5893 5893 5893 5893 5893 5893 5893 5894 5894 5893 5893 5892 5892 5891 5890 5889 5888 5886 5885 5882 5880 5878 5875 5873 5870 5867 5865 5862 5858 5855 5851 5848 5845 5842 5840 5838 5838 5838 5839 5840 5842 5844 5846 5848 5849 5850
5889 5889 5888 5888 5888 5888 5888 5887 5887 5887 5887 5887 5886 5886 5886 5885 5885 5884 5883 5882 5880 5878 5876 5874 5871 5868 5866 5863 5860 5857 5853 5850 5846 5842 5839 5835 5831 5829 5828 5827 5829 5831 5832 5834 5836 5838 5840 5841 5843
5886 5886 5885 5884 5884 5884 5885 5883 5882 5881 5881 5881 5880 5880 5879 5879 5879 5878 5877 5876 5874 5872 5869 5867 5864 5861 5858 5855 5852 5848 5845 5842 5838 5834 5830 5825 5821 5818 5817 5817 5819 5822 5823 5825 5828 5830 5832 5834 5835
5883 5885 5883 5880 5879 5879 5879 5878 5877 5876 5876 5875 5875 5874 5874 5873 5873 5872 5871 5869 5867 5865 5862 5859 5856 5853 5850 5846 5843 5840 5836 5833 5829 5825 5821 5816 5812 5808 5807 5809 5811 5813 5814 5817 5819 5822 5823 5825 5827
5882 5882 5879 5877 5876 5875 5874 5873 5873 5872 5871 5871 5870 5870 5869 5869 5868 5866 5864 5862 5859 5856 5853 5850 5847 5844 5841 5837 5834 5831 5828 5825 5821 5817 5813 5808 5803 5800 5799 5801 5802 5804 5806 5808 5811 5814 5816 5818 5820
5877 5877 5876 5874 5873 5872 5870 5869 5868 5868 5867 5867 5866 5865 5864 5863 5861 5859 5857 5854 5851 5848 5844 5840 5837 5834 5831 5828 5825 5822 5819 5816 5812 5809 5805 5801 5797 5794 5793 5793 5794 5795 5798 5801 5803 5806 5808 5810 5812
5874 5875 5873 5871 5870 5868 5866 5865 5864 5863 5863 5862 5861 5860 5859 5857 5854 5852 5849 5846 5842 5839 5835 5831 5828 5825 5822 5819 5815 5812 5809 5806 5803 5800 5797 5794 5791 5789 5787 5786 5785 5787 5790 5792 5794 5797 5800 5802 5804
5873 5873 5871 5868 5867 5865 5864 5862 5861 5860 5859 5858 5857 5855 5853 5851 5848 5845 5842 5839 5835 5831 5827 5823 5819 5816 5812 5809 5806 5802 5799 5796 5794 5791 5788 5786 5784 5782 5781 5780 5780 5781 5782 5783 5786 5788 5791 5793 5796
5872 5870 5868 5866 5865 5864 5863 5862 5859 5857 5856 5855 5853 5851 5848 5845 5842 5839 5835 5831 5827 5823 5819 5815 5810 5806 5802 5798 5795 5792 5788 5785 5783 5780 5778 5777 5775 5774 5773 5773 5772 5773 5774 5775 5777 5779 5781 5784 5787
5869 5867 5866 5865 5864 5863 5861 5861 5858 5855 5853 5851 5848 5846 5843 5840 5836 5833 5829 5824 5819 5815 5810 5806 5801 5796 5792 5787 5783 5780 5776 5773 5771 5768 5767 5766 5764 5764 5763 5763 5763 5764 5765 5766 5768 5770 5772 5775 5778
5866 5866 5865 5863 5863 5862 5859 5859 5855 5852 5850 5847 5844 5841 5838 5835 5831 5826 5822 5817 5812 5807 5802 5797 5792 5787 5781 5777 5772 5768 5764 5761 5758 5756 5754 5753 5752 5752 5751 5752 5753 5753 5754 5756 5758 5761 5763 5765 5768
5865 5866 5865 5863 5862 5860 5857 5855 5853 5849 5846 5843 5840 5836 5832 5828 5824 5819 5815 5810 5804 5799 5793 5787 5782 5777 5771 5766 5761 5757 5753 5750 5747 5744 5742 5740 5739 5738 5738 5739 5740 5741 5743 5745 5747 5749 5752 5755 5758
5864 5864 5865 5864 5862 5859 5853 5851 5849 5845 5842 5838 5835 5831 5826 5822 5817 5812 5806 5801 5795 5789 5783 5777 5771 5766 5760 5755 5751 5746 5743 5739 5736 5733 5730 5728 5726 5724 5724 5724 5725 5727 5729 5732 5734 5737 5740 5744 5747
5862 5861 5860 5859 5857 5855 5852 5847 5844 5841 5837 5834 5829 5825 5820 5815 5809 5803 5797 5791 5785 5779 5773 5767 5761 5755 5749 5745 5740 5736 5732 5728 5725 5722 5719 5716 5714 5711 5710 5709 5709 5710 5713 5716 5719 5722 5726 5730 5734
5860 5858 5857 5856 5854 5853 5850 5845 5841 5837 5833 5828 5823 5819 5813 5808 5801 5795 5789 5782 5776 5769 5762 5756 5749 5744 5739 5735 5730 5726 5722 5718 5714 5710 5707 5703 5700 5697 5695 5694 5693 5694 5695 5698 5701 5706 5710 5715 5720
5857 5856 5854 5853 5850 5849 5847 5845 5838 5833 5828 5824 5818 5813 5807 5801 5794 5788 5780 5773 5766 5759 5752 5745 5739 5734 5729 5724 5720 5715 5710 5705 5700 5695 5691 5687 5684 5680 5678 5676 5676 5676 5677 5679 5682 5687 5692 5698 5704
5855 5853 5852 5851 5848 5845 5843 5841 5834 5829 5824 5819 5813 5807 5801 5794 5787 5779 5772 5764 5757 5750 5742 5736 5730 5724 5719 5714 5709 5703 5697 5691 5685 5678 5673 5668 5664 5660 5657 5656 5655 5656 5657 5659 5662 5667 5672 5679 5686